Terminal Aerodrome Forecast
Issued by NWS

Home | Current Version | Previous Version | Text Only | Print | Product List | Glossary On
Versions: 1 2 3 4 5 6 7 8 9 10 11 12 13 14 15 16 17 18 19 20 21 22 23 24 25 26 27 28 29
128
FTUS41 KOKX 282320
TAFTEB
TAF
KTEB 282320Z 2900/2924 13007KT P6SM SCT015 BKN050
     FM290600 08007KT P6SM -RA OVC015
     FM290900 07008KT 5SM -RA OVC007
     FM291200 05008KT 2SM RA OVC007 PROB30 2912/2916 -TSRA SCT007
      BKN015CB
     FM291600 04006KT 3SM -DZ BR OVC007
     FM292100 03005KT P6SM OVC010=

USA.gov is the U.S. government's official web portal to all federal, state and local government web resources and services.